User: anonymous   Login
Location: Unspecified
(0.0000°N, 0.0000°E)
Time: 16:39:14
(UTC+00:00)
Language:

PAYLOAD E - Orbit

View from above orbital plane
View from above orbital plane
View from above satellite
View from above satellite

Ground track
Ground track

The orbit data is extracted from the following two-line orbital elements,

1 27059U 01058E   17204.91822006 +.00000004 +00000-0 -37160-4 0  9995
2 27059 082.5424 133.9260 0002596 046.3774 313.7532 12.61478351716980
Epoch (UTC): 23 July 2017 22:02:14
Eccentricity: 0.0002596
inclination: 82.5424°
perigee height: 1415 km
apogee height: 1419 km
right ascension of ascending node: 133.9260°
argument of perigee: 46.3774°
revolutions per day: 12.61478351
mean anomaly at epoch: 313.7532°
orbit number at epoch: 71698

The dashed part of the orbit path shows where the satellite is in the earth's shadow,  

DLR